Location: Newark
(1.4667°N, 173.0333°E)
Time: 12:54:26
(UTC+00:00)

N. Korean satellite - Visible Passes

Search period start: 16 October 2019 00:00
Search period end: 26 October 2019 00:00
Orbit: 455 x 508 km, 97.2° (Epoch: 15 October)

Date Brightness Start Highest point End Pass type
(mag) Time Alt. Az. Time Alt. Az. Time Alt. Az.
16 Oct 8.2 17:42:41 10° NNE 17:46:09 41° E 17:49:40 10° S visible
17 Oct 10.1 17:18:34 10° ENE 17:20:57 16° ESE 17:23:20 10° SE visible
18 Oct 9.9 06:40:00 10° SW 06:42:22 18° W 06:44:43 10° WNW visible
20 Oct 8.9 17:35:07 10° NE 17:38:24 31° E 17:41:42 10° SSE visible
21 Oct 10.4 17:11:32 10° ENE 17:13:11 13° E 17:14:50 10° SE visible
24 Oct 9.5 17:27:36 10° NE 17:30:37 23° E 17:33:38 10° SSE visible
25 Oct 10.3 06:50:36 10° SW 06:51:57 12° W 06:53:17 10° WNW visible
